Location: *
(51.1248°S, 108.4023°W)
Time: 08:06:50
(UTC+00:00)

Envisat - Pass Details

Date: 30 September 2021
Orbit: 764 x 766 km, 98.2° (Epoch: 27 October)

Event Time Altitude Azimuth Distance (km) Brightness Sun altitude
Rises 09:40:47 0° 65° (ENE) 3,245 6.5 -26.4°
Reaches altitude 10° 09:43:44 10° 83° (E) 2,327 5.9 -26.1°
Maximum altitude 09:47:09 18° 125° (SE) 1,824 5.8 -25.7°
Drops below altitude 10° 09:50:35 10° 167° (SSE) 2,344 6.2 -25.3°
Sets 09:53:34 0° 184° (S) 3,279 6.8 -25.0°
